Change the Weather History Date:

Tuesday, December 31, 2013

  Actual Average Record
Temperature  
Mean Temperature 47 °F -  
Max Temperature 64 °F 63 °F 73 °F (1999)
Min Temperature 30 °F 32 °F 24 °F (2002)
Degree Days  
Heating Degree Days 18    
Moisture  
Dew Point 27 °F    
Average Humidity 54    
Maximum Humidity 93    
Minimum Humidity 27    
Precipitation  
Precipitation 0.00 in - - ()
Sea Level Pressure  
Sea Level Pressure 30.26 in    
Wind  
Wind Speed 3 mph ()    
Max Wind Speed 9 mph    
Max Gust Speed -    
Visibility 8.3 miles    
Events      
Averages and records for this station are not official NWS values.
T = Trace of Precipitation, MM = Missing Value Source: Averaged Metar Reports

Daily Weather History Graph

Daily Weather History Graph

Search for Another Location

Airport or City:

Trip Planner

Search our weather history database for the weather conditions in past years. The results will help you decide how hot, cold, wet, or windy it might be!

Date:

Astronomy

Dec. 31, 2013 Rise Set
Actual Time 6:56 AM MST 5:17 PM MST
Civil Twilight 6:30 AM MST 5:43 PM MST
Nautical Twilight 6:01 AM MST 6:12 PM MST
Astronomical Twilight 5:32 AM MST 6:41 PM MST
Moon 5:55 AM MST (12/31) 4:52 PM MST (12/31)
Length of Visible Light 11h 12m
Length of Day
10h 20m
Waning Crescent, 1% of the Moon is Illuminated
Dec 31
Waning Crescent
Jan 1
New
Jan 7
First Quarter
Jan 15
Full
Jan 23
Last Quarter

Hourly Weather History & Observations

Time (MST) Temp. Windchill Dew Point Humidity Pressure Visibility Wind Dir Wind Speed Gust Speed Precip Events Conditions
1:50 AM 35 °F - 29 °F 71% 30.22 in 1 mi Calm Calm - -  
4:37 AM 32 °F - 29 °F 86% 30.27 in 1 mi Calm Calm - -  
4:40 AM 28.4 °F 20.4 °F 24.8 °F 86% 30.35 in 10.0 mi South 8.1 mph - N/A   Clear
5:40 AM 26.6 °F 18.2 °F 23.0 °F 86% 30.34 in 10.0 mi South 8.1 mph - N/A   Clear
6:40 AM 23.0 °F 14.7 °F 21.2 °F 93% 30.35 in 10.0 mi SSE 6.9 mph - N/A   Clear
7:40 AM 30.2 °F - 28.4 °F 93% 30.43 in 10.0 mi Calm Calm - N/A   Clear
7:50 AM 35 °F - 31 °F 79% 30.34 in 6 mi Calm Calm - -  
8:40 AM 39.2 °F 37.0 °F 30.2 °F 70% 30.38 in 10.0 mi South 3.5 mph - N/A   Clear
9:40 AM 44.6 °F - 26.6 °F 49% 30.39 in 10.0 mi Calm Calm - N/A   Clear
10:40 AM 51.8 °F - 24.8 °F 35% 30.36 in 10.0 mi Calm Calm - N/A   Clear
10:45 AM 54 °F - 30 °F 28% 30.30 in 6 mi East 2.2 mph - -  
11:40 AM 53.6 °F - 24.8 °F 33% 30.34 in 10.0 mi Calm Calm - N/A   Clear
12:40 PM 57.2 °F - 26.6 °F 31% 30.28 in 10.0 mi NE 6.9 mph - N/A   Clear
1:40 PM 59.0 °F - 26.6 °F 29% 30.19 in 10.0 mi Calm Calm - N/A   Clear
2:40 PM 60.8 °F - 26.6 °F 27% 30.22 in 10.0 mi South 5.8 mph - N/A   Clear
3:40 PM 60.8 °F - 26.6 °F 27% 30.21 in 10.0 mi South 6.9 mph - N/A   Clear
4:40 PM 61 °F - 37 °F 29% 30.01 in 6 mi SSW 2.2 mph - -  
4:40 PM 57.2 °F - 26.6 °F 31% 30.20 in 10.0 mi South 6.9 mph - N/A   Clear
5:40 PM 46.4 °F 45.2 °F 26.6 °F 46% 30.21 in 10.0 mi ESE 3.5 mph - N/A   Clear
6:40 PM 39.2 °F 35.9 °F 24.8 °F 56% 30.22 in 10.0 mi SSE 4.6 mph - N/A   Clear
7:38 PM 49 °F - 34 °F 43% 29.98 in 1 mi SSW 2.2 mph - -  
7:40 PM 44.6 °F 39.7 °F 26.6 °F 49% 30.21 in 10.0 mi SSE 9.2 mph - N/A   Clear
8:40 PM 41.0 °F 35.2 °F 26.6 °F 57% 30.24 in 10.0 mi SSW 9.2 mph - N/A   Clear